EWG7HP EDDL-EDXW

Flight info

Callsign EWG7HP
Flight time 0h 59m
Altitude 23000
Route MEVEL Y850 JUWGI Z529 SUQIF DCT ABFAD DCT OLDIP DCT
Aircraft A319/M-SDE2E3FGIJ1RWXYZ/EB1

Departure

Time 2026-05-08 17:54
Airport Düsseldorf Airport (EDDL)

Arrival

Time 2026-05-08 18:53
Airport Westerland Sylt Airport (EDXW)
Time Latitude Longitude Altitude Speed Heading
2026-05-08 17:39 51.27914 6.75937 130 ft 0 kts 91°
2026-05-08 17:49 51.27913 6.75952 125 ft 0 kts 91°
2026-05-08 17:49 51.27913 6.76001 129 ft 8 kts 91°
2026-05-08 17:50 51.27965 6.76046 130 ft 13 kts
2026-05-08 17:50 51.28057 6.76049 130 ft 14 kts
2026-05-08 17:50 51.28100 6.75963 130 ft 13 kts 247°
2026-05-08 17:50 51.28040 6.75833 128 ft 15 kts 233°
2026-05-08 17:51 51.27988 6.75724 130 ft 14 kts 232°
2026-05-08 17:51 51.27944 6.75611 129 ft 11 kts 260°
2026-05-08 17:51 51.27979 6.75537 129 ft 0 kts 334°
2026-05-08 17:52 51.27987 6.75532 124 ft 4 kts 334°
2026-05-08 17:52 51.28094 6.75480 127 ft 7 kts 32°
2026-05-08 17:53 51.28102 6.75495 124 ft 0 kts 54°
2026-05-08 17:53 51.28102 6.75496 125 ft 1 kts 54°
2026-05-08 17:53 51.28214 6.75734 126 ft 60 kts 52°
2026-05-08 17:54 51.28600 6.76541 131 ft 121 kts 52°
2026-05-08 17:54 51.29184 6.77751 406 ft 141 kts 51°
2026-05-08 17:54 51.29776 6.79010 1006 ft 142 kts 52°
2026-05-08 17:54 51.30404 6.80344 1400 ft 160 kts 52°
2026-05-08 17:55 51.31124 6.81866 1764 ft 183 kts 53°
2026-05-08 17:55 51.31947 6.83605 2174 ft 209 kts 53°
2026-05-08 17:55 51.32874 6.85558 2712 ft 233 kts 53°
2026-05-08 17:55 51.33888 6.87729 3388 ft 251 kts 54°
2026-05-08 17:56 51.35072 6.89840 4328 ft 261 kts 36°
2026-05-08 17:56 51.36770 6.90899 5298 ft 268 kts
2026-05-08 17:56 51.38648 6.91068 6323 ft 273 kts
2026-05-08 17:56 51.40509 6.91832 7251 ft 280 kts 20°
2026-05-08 17:57 51.42337 6.92983 8239 ft 284 kts 20°
2026-05-08 17:57 51.44185 6.94159 9201 ft 288 kts 21°
2026-05-08 17:57 51.46064 6.95363 10141 ft 293 kts 21°
2026-05-08 17:57 51.48008 6.96612 10636 ft 312 kts 21°
2026-05-08 17:58 51.50093 6.97955 11055 ft 331 kts 21°
2026-05-08 17:58 51.52253 6.99349 11772 ft 337 kts 21°
2026-05-08 17:58 51.54449 7.00765 12563 ft 342 kts 21°
2026-05-08 17:58 51.56666 7.02194 13366 ft 346 kts 21°
2026-05-08 17:59 51.58911 7.03643 14135 ft 350 kts 21°
2026-05-08 17:59 51.61179 7.05107 14828 ft 353 kts 21°
2026-05-08 17:59 51.63473 7.06595 15522 ft 357 kts 21°
2026-05-08 17:59 51.65787 7.08100 16222 ft 361 kts 21°
2026-05-08 18:00 51.68128 7.09623 16917 ft 364 kts 21°
2026-05-08 18:00 51.72869 7.12718 18318 ft 371 kts 21°
2026-05-08 18:00 51.75280 7.14293 18932 ft 375 kts 21°
2026-05-08 18:01 51.77711 7.15883 19544 ft 378 kts 21°
2026-05-08 18:01 51.80162 7.17482 20167 ft 381 kts 20°
2026-05-08 18:01 51.82636 7.19098 20791 ft 385 kts 21°
2026-05-08 18:01 51.85019 7.21108 21386 ft 390 kts 32°
2026-05-08 18:02 51.87169 7.23820 21978 ft 394 kts 43°
2026-05-08 18:02 51.88443 7.25929 22363 ft 397 kts 46°
2026-05-08 18:02 51.91006 7.30282 23026 ft 402 kts 45°
2026-05-08 18:02 51.92935 7.33544 23123 ft 396 kts 45°
2026-05-08 18:03 51.94786 7.36673 23132 ft 384 kts 45°
2026-05-08 18:03 51.96626 7.39786 23134 ft 381 kts 45°
2026-05-08 18:03 51.98453 7.42883 23137 ft 380 kts 45°
2026-05-08 18:03 52.00277 7.45978 23136 ft 379 kts 45°
2026-05-08 18:04 52.02100 7.49078 23132 ft 379 kts 45°
2026-05-08 18:04 52.03918 7.52178 23144 ft 379 kts 45°
2026-05-08 18:04 52.05734 7.55283 23140 ft 379 kts 45°
2026-05-08 18:04 52.07549 7.58391 23148 ft 379 kts 45°
2026-05-08 18:05 52.09370 7.61512 23134 ft 379 kts 45°
2026-05-08 18:05 52.11190 7.64621 23144 ft 379 kts 45°
2026-05-08 18:05 52.13024 7.67701 23140 ft 379 kts 44°
2026-05-08 18:05 52.14876 7.70755 23133 ft 379 kts 42°
2026-05-08 18:06 52.16948 7.73385 23143 ft 377 kts 30°
2026-05-08 18:06 52.19285 7.75292 23138 ft 375 kts 19°
2026-05-08 18:06 52.21785 7.76435 23135 ft 372 kts
2026-05-08 18:06 52.24356 7.76915 23135 ft 371 kts
2026-05-08 18:07 52.26059 7.77184 23137 ft 372 kts
2026-05-08 18:07 52.28636 7.77595 23139 ft 372 kts
2026-05-08 18:07 52.31209 7.78010 23142 ft 372 kts
2026-05-08 18:07 52.33788 7.78414 23150 ft 371 kts
2026-05-08 18:08 52.36356 7.78319 23157 ft 369 kts 352°
2026-05-08 18:08 52.38908 7.77888 23142 ft 369 kts 352°
2026-05-08 18:08 52.41461 7.77468 23151 ft 369 kts 352°
2026-05-08 18:08 52.44017 7.77055 23144 ft 369 kts 352°
2026-05-08 18:09 52.46574 7.76639 23147 ft 369 kts 352°
2026-05-08 18:09 52.49130 7.76218 23149 ft 369 kts 352°
2026-05-08 18:09 52.51684 7.75799 23152 ft 369 kts 352°
2026-05-08 18:09 52.54239 7.75383 23152 ft 369 kts 353°
2026-05-08 18:10 52.56770 7.75079 23161 ft 369 kts 355°
2026-05-08 18:10 52.59333 7.74884 23154 ft 369 kts 356°
2026-05-08 18:10 52.61900 7.74748 23156 ft 369 kts 356°
2026-05-08 18:10 52.64469 7.74628 23160 ft 369 kts 356°
2026-05-08 18:11 52.67037 7.74504 23159 ft 369 kts 356°
2026-05-08 18:11 52.69606 7.74365 23176 ft 369 kts 356°
2026-05-08 18:11 52.72174 7.74200 23161 ft 369 kts 355°
2026-05-08 18:11 52.74736 7.74020 23169 ft 369 kts 355°
2026-05-08 18:12 52.77300 7.73837 23178 ft 369 kts 355°
2026-05-08 18:12 52.79864 7.73649 23160 ft 369 kts 355°
2026-05-08 18:12 52.82429 7.73463 23163 ft 369 kts 355°
2026-05-08 18:12 52.84993 7.73281 23160 ft 369 kts 355°
2026-05-08 18:13 52.87559 7.73102 23161 ft 369 kts 355°
2026-05-08 18:13 52.90121 7.72926 23160 ft 369 kts 355°
2026-05-08 18:13 52.92685 7.72752 23165 ft 369 kts 355°
2026-05-08 18:13 52.95247 7.72575 23165 ft 369 kts 355°
2026-05-08 18:14 52.97813 7.72346 23164 ft 368 kts 351°
2026-05-08 18:14 53.00310 7.71507 23163 ft 365 kts 341°
2026-05-08 18:14 53.02725 7.70215 23165 ft 365 kts 340°
2026-05-08 18:14 53.05145 7.68914 23164 ft 365 kts 340°
2026-05-08 18:15 53.07567 7.67614 23168 ft 365 kts 340°
2026-05-08 18:15 53.09986 7.66319 23164 ft 365 kts 340°
2026-05-08 18:15 53.12407 7.65026 23166 ft 365 kts 340°
2026-05-08 18:15 53.14799 7.63754 23173 ft 365 kts 340°
2026-05-08 18:16 53.17267 7.62532 23165 ft 366 kts 346°
2026-05-08 18:16 53.19773 7.62141 23169 ft 369 kts
2026-05-08 18:16 53.22319 7.62759 23169 ft 372 kts 13°
2026-05-08 18:16 53.24728 7.64350 23176 ft 374 kts 27°
2026-05-08 18:17 53.26883 7.66806 23171 ft 376 kts 36°
2026-05-08 18:17 53.28946 7.69495 23172 ft 376 kts 36°
2026-05-08 18:17 53.31009 7.72199 23173 ft 376 kts 36°
2026-05-08 18:17 53.33066 7.74904 23173 ft 377 kts 36°
2026-05-08 18:18 53.35127 7.77615 23173 ft 377 kts 36°
2026-05-08 18:18 53.37188 7.80328 23176 ft 377 kts 36°
2026-05-08 18:18 53.39247 7.83042 23176 ft 377 kts 36°
2026-05-08 18:18 53.41311 7.85767 23180 ft 377 kts 36°
2026-05-08 18:19 53.43370 7.88488 23178 ft 377 kts 36°
2026-05-08 18:19 53.45426 7.91209 23180 ft 377 kts 36°
2026-05-08 18:19 53.47487 7.93936 23181 ft 377 kts 36°
2026-05-08 18:19 53.49545 7.96662 23180 ft 377 kts 36°
2026-05-08 18:20 53.51603 7.99392 23181 ft 377 kts 36°
2026-05-08 18:20 53.53658 8.02123 23184 ft 377 kts 36°
2026-05-08 18:20 53.55712 8.04859 23182 ft 377 kts 36°
2026-05-08 18:20 53.57769 8.07603 23185 ft 377 kts 36°
2026-05-08 18:21 53.59822 8.10342 23185 ft 377 kts 36°
2026-05-08 18:21 53.61872 8.13084 23185 ft 376 kts 36°
2026-05-08 18:21 53.63923 8.15829 23186 ft 376 kts 36°
2026-05-08 18:21 53.65974 8.18577 23186 ft 376 kts 36°
2026-05-08 18:22 53.68021 8.21324 23185 ft 376 kts 36°
2026-05-08 18:22 53.70068 8.24068 23186 ft 376 kts 36°
2026-05-08 18:22 53.72123 8.26822 23186 ft 376 kts 36°
2026-05-08 18:22 53.74170 8.29574 23186 ft 376 kts 36°
2026-05-08 18:23 53.76217 8.32334 23188 ft 376 kts 36°
2026-05-08 18:23 53.78263 8.35095 23187 ft 376 kts 36°
2026-05-08 18:23 53.80305 8.37853 23186 ft 376 kts 36°
2026-05-08 18:23 53.82348 8.40619 23185 ft 376 kts 36°
2026-05-08 18:24 53.84388 8.43387 23184 ft 376 kts 36°
2026-05-08 18:24 53.86430 8.46159 23185 ft 376 kts 36°
2026-05-08 18:24 53.88468 8.48931 23189 ft 376 kts 36°
2026-05-08 18:24 53.90481 8.51674 23184 ft 376 kts 36°
2026-05-08 18:25 53.92515 8.54448 23189 ft 375 kts 36°
2026-05-08 18:25 53.94614 8.57068 23185 ft 373 kts 28°
2026-05-08 18:25 53.96930 8.58982 23190 ft 369 kts 17°
2026-05-08 18:25 53.99392 8.60113 23187 ft 365 kts
2026-05-08 18:26 54.01904 8.60585 23189 ft 363 kts
2026-05-08 18:26 54.04423 8.60987 23197 ft 363 kts
2026-05-08 18:26 54.06937 8.61393 23153 ft 363 kts
2026-05-08 18:26 54.09439 8.61802 22878 ft 359 kts
2026-05-08 18:27 54.11914 8.62208 22604 ft 356 kts
2026-05-08 18:27 54.13581 8.62480 22426 ft 355 kts
2026-05-08 18:27 54.16832 8.63012 22074 ft 353 kts
2026-05-08 18:27 54.19275 8.63415 21808 ft 352 kts
2026-05-08 18:28 54.21706 8.63815 21537 ft 348 kts
2026-05-08 18:28 54.24098 8.64204 21141 ft 344 kts
2026-05-08 18:28 54.26475 8.64588 20720 ft 341 kts
2026-05-08 18:28 54.28832 8.64967 20303 ft 339 kts
2026-05-08 18:29 54.31169 8.65344 19885 ft 336 kts
2026-05-08 18:29 54.33496 8.65724 19471 ft 334 kts
2026-05-08 18:29 54.35806 8.66105 19060 ft 332 kts
2026-05-08 18:29 54.38098 8.66481 18650 ft 331 kts
2026-05-08 18:30 54.40409 8.66855 18208 ft 335 kts
2026-05-08 18:30 54.42729 8.67229 17791 ft 334 kts
2026-05-08 18:30 54.45036 8.67604 17392 ft 331 kts
2026-05-08 18:30 54.47319 8.67980 16997 ft 327 kts
2026-05-08 18:31 54.49548 8.68350 16610 ft 324 kts
2026-05-08 18:31 54.51779 8.68720 16224 ft 321 kts
2026-05-08 18:31 54.53991 8.69090 15843 ft 318 kts
2026-05-08 18:31 54.56179 8.69456 15507 ft 312 kts
2026-05-08 18:32 54.58294 8.69811 15233 ft 298 kts
2026-05-08 18:32 54.60317 8.70148 14964 ft 286 kts
2026-05-08 18:32 54.62260 8.70472 14695 ft 276 kts
2026-05-08 18:32 54.64121 8.70931 14426 ft 267 kts 17°
2026-05-08 18:33 54.65747 8.72432 14166 ft 266 kts 40°
2026-05-08 18:33 54.66881 8.74931 13884 ft 265 kts 65°
2026-05-08 18:33 54.67340 8.77994 13587 ft 264 kts 89°
2026-05-08 18:33 54.67057 8.81087 13290 ft 262 kts 112°
2026-05-08 18:34 54.66095 8.83707 12996 ft 259 kts 136°
2026-05-08 18:34 54.64707 8.85677 12709 ft 258 kts 144°
2026-05-08 18:34 54.63250 8.87473 12424 ft 257 kts 146°
2026-05-08 18:34 54.61777 8.89216 12139 ft 256 kts 146°
2026-05-08 18:35 54.60299 8.90926 11855 ft 255 kts 149°
2026-05-08 18:35 54.58643 8.91948 11572 ft 253 kts 173°
2026-05-08 18:35 54.56902 8.91805 11288 ft 251 kts 195°
2026-05-08 18:35 54.55330 8.90557 11017 ft 250 kts 217°
2026-05-08 18:36 54.54157 8.88389 10740 ft 248 kts 239°
2026-05-08 18:36 54.53549 8.85625 10470 ft 247 kts 261°
2026-05-08 18:36 54.53589 8.82686 10192 ft 247 kts 283°
2026-05-08 18:36 54.54258 8.79995 9911 ft 246 kts 305°
2026-05-08 18:37 54.55448 8.77906 9619 ft 244 kts 322°
2026-05-08 18:37 54.56812 8.76164 9330 ft 243 kts 325°
2026-05-08 18:37 54.58203 8.74507 9037 ft 242 kts 326°
2026-05-08 18:37 54.59594 8.72877 8748 ft 241 kts 327°
2026-05-08 18:38 54.60979 8.71249 8464 ft 240 kts 327°
2026-05-08 18:38 54.62393 8.69752 8171 ft 237 kts 341°
2026-05-08 18:38 54.63990 8.69388 7891 ft 231 kts 10°
2026-05-08 18:38 54.65461 8.70335 7614 ft 225 kts 38°
2026-05-08 18:39 54.66483 8.72259 7337 ft 219 kts 63°
2026-05-08 18:39 54.66900 8.74742 7068 ft 215 kts 89°
2026-05-08 18:39 54.66642 8.77251 6797 ft 214 kts 113°
2026-05-08 18:39 54.65778 8.79312 6518 ft 214 kts 137°
2026-05-08 18:40 54.64598 8.80871 6230 ft 213 kts 143°
2026-05-08 18:40 54.63386 8.82334 5942 ft 212 kts 143°
2026-05-08 18:40 54.62173 8.83771 5656 ft 211 kts 144°
2026-05-08 18:40 54.60966 8.85198 5372 ft 210 kts 143°
2026-05-08 18:41 54.59746 8.86570 5091 ft 210 kts 152°
2026-05-08 18:41 54.58344 8.87236 4804 ft 211 kts 175°
2026-05-08 18:41 54.56896 8.86812 4504 ft 213 kts 201°
2026-05-08 18:41 54.55695 8.85320 4216 ft 216 kts 227°
2026-05-08 18:42 54.54994 8.83045 3933 ft 218 kts 254°
2026-05-08 18:42 54.54957 8.80443 3647 ft 220 kts 282°
2026-05-08 18:42 54.55605 8.78073 3363 ft 220 kts 310°
2026-05-08 18:42 54.56748 8.76352 3101 ft 218 kts 326°
2026-05-08 18:43 54.57970 8.74852 3003 ft 215 kts 327°
2026-05-08 18:43 54.59212 8.73398 3015 ft 216 kts 328°
2026-05-08 18:43 54.60448 8.71935 3016 ft 216 kts 327°
2026-05-08 18:43 54.61680 8.70445 3014 ft 216 kts 327°
2026-05-08 18:44 54.62911 8.68947 3016 ft 217 kts 327°
2026-05-08 18:44 54.64151 8.67436 3019 ft 218 kts 326°
2026-05-08 18:44 54.65389 8.65926 3014 ft 218 kts 326°
2026-05-08 18:44 54.66627 8.64416 3016 ft 218 kts 326°
2026-05-08 18:45 54.67867 8.62903 3016 ft 218 kts 327°
2026-05-08 18:45 54.69103 8.61393 3017 ft 218 kts 327°
2026-05-08 18:45 54.70336 8.59885 3014 ft 217 kts 327°
2026-05-08 18:45 54.71556 8.58393 3014 ft 217 kts 327°
2026-05-08 18:46 54.72788 8.56884 3013 ft 217 kts 327°
2026-05-08 18:46 54.74017 8.55378 3012 ft 216 kts 327°
2026-05-08 18:46 54.75244 8.53873 3015 ft 216 kts 327°
2026-05-08 18:46 54.76474 8.52364 3013 ft 216 kts 327°
2026-05-08 18:47 54.77704 8.50853 3009 ft 217 kts 327°
2026-05-08 18:47 54.78932 8.49344 2833 ft 214 kts 327°
2026-05-08 18:47 54.80122 8.47879 2558 ft 205 kts 327°
2026-05-08 18:47 54.81265 8.46471 2303 ft 197 kts 328°
2026-05-08 18:48 54.82345 8.45139 2036 ft 186 kts 328°
2026-05-08 18:48 54.83371 8.43874 1778 ft 176 kts 329°
2026-05-08 18:48 54.84338 8.42681 1540 ft 164 kts 329°
2026-05-08 18:48 54.85244 8.41563 1322 ft 156 kts 329°
2026-05-08 18:49 54.86121 8.40482 1110 ft 153 kts 329°
2026-05-08 18:49 54.86986 8.39415 913 ft 151 kts 329°
2026-05-08 18:49 54.87923 8.38748 897 ft 143 kts
2026-05-08 18:49 54.88911 8.38726 909 ft 141 kts
2026-05-08 18:50 54.89891 8.38791 909 ft 140 kts
2026-05-08 18:50 54.90536 8.38837 909 ft 140 kts
2026-05-08 18:50 54.91797 8.38026 910 ft 150 kts 332°
2026-05-08 18:50 54.92371 8.37357 911 ft 150 kts 330°
2026-05-08 18:51 54.93222 8.36321 909 ft 149 kts 329°
2026-05-08 18:51 54.94068 8.35280 907 ft 149 kts 329°
2026-05-08 18:51 54.94886 8.34140 897 ft 155 kts 308°
2026-05-08 18:51 54.95072 8.32361 891 ft 155 kts 244°
2026-05-08 18:52 54.94391 8.31027 863 ft 144 kts 200°
2026-05-08 18:52 54.93519 8.31180 732 ft 129 kts 141°
2026-05-08 18:52 54.92843 8.32155 390 ft 125 kts 140°
2026-05-08 18:52 54.92143 8.33027 125 ft 121 kts 140°
2026-05-08 18:53 54.91510 8.33818 35 ft 96 kts 144°
2026-05-08 18:53 54.91074 8.34357 38 ft 64 kts 144°
2026-05-08 18:53 54.90744 8.34767 34 ft 59 kts 144°
2026-05-08 18:53 54.90483 8.35087 37 ft 31 kts 144°
2026-05-08 18:54 54.90383 8.35163 37 ft 12 kts 194°
2026-05-08 18:54 54.90328 8.35023 35 ft 16 kts 252°
2026-05-08 18:54 54.90306 8.34820 36 ft 18 kts 260°
2026-05-08 18:54 54.90281 8.34582 34 ft 21 kts 260°
2026-05-08 18:55 54.90238 8.34001 33 ft 27 kts 277°
2026-05-08 18:55 54.90260 8.33748 33 ft 17 kts 279°
2026-05-08 18:55 54.90302 8.33547 31 ft 19 kts 298°
2026-05-08 18:56 54.90395 8.33365 34 ft 21 kts 323°
2026-05-08 18:56 54.90535 8.33256 34 ft 23 kts 348°
2026-05-08 18:56 54.90702 8.33229 35 ft 26 kts 355°
2026-05-08 18:56 54.90853 8.33191 34 ft 16 kts 342°
2026-05-08 18:57 54.90895 8.33161 34 ft 0 kts 334°
2026-05-08 18:58 54.90902 8.33155 35 ft 4 kts 334°
2026-05-08 18:58 54.90972 8.33109 34 ft 17 kts
2026-05-08 18:59 54.91083 8.33181 34 ft 17 kts
2026-05-08 18:59 54.91201 8.33181 33 ft 18 kts
2026-05-08 18:59 54.91322 8.33231 29 ft 12 kts 28°
2026-05-08 18:59 54.91375 8.33228 29 ft 6 kts 342°
2026-05-08 19:00 54.91387 8.33179 29 ft 4 kts 269°
2026-05-08 19:00 54.91387 8.33129 29 ft 4 kts 269°
2026-05-08 19:00 54.91387 8.33114 29 ft 0 kts 269°